Theta_e
315 315 315 314 313 308 305 298 284 305 306 296 293 291 295 300 300 301 299 298 296 294 295 294 297 300 304 310 308 301 296 291 288 293 297 301 297 294 293 289 289 290 288 289
314 314 314 314 312 308 301 292 293 307 306 291 290 296 299 300 300 299 299 297 298 298 294 291 299 303 307 309 307 302 301 290 285 290 293 299 296 298 297 294 292 290 290 292
314 314 314 313 312 308 303 296 292 299 299 297 293 293 295 296 303 301 301 298 298 295 293 295 295 300 309 310 308 314 303 293 289 286 289 296 296 298 300 296 290 291 293 295
315 314 314 313 311 309 303 295 293 299 292 294 295 295 297 297 297 301 300 295 296 293 290 291 293 300 302 307 308 303 300 295 296 298 300 300 298 298 298 296 297 294 296 297
315 314 314 312 311 309 301 296 296 300 297 297 295 295 294 298 300 299 297 296 300 294 291 292 293 297 297 296 300 298 300 294 295 295 301 302 299 299 300 300 301 300 301 300
315 314 314 312 311 307 299 300 301 301 297 295 292 294 298 300 301 302 301 302 299 298 299 299 298 298 299 301 297 296 295 293 292 289 298 299 293 298 302 302 303 301 298 302
315 314 313 313 312 308 304 302 301 297 294 296 297 301 302 300 301 300 306 305 300 306 308 304 302 301 303 303 300 300 296 294 293 290 295 285 296 306 307 304 305 306 306 307
315 313 313 313 312 309 304 302 301 297 293 298 299 301 300 299 300 302 304 305 307 307 302 297 293 294 294 296 303 299 299 296 292 289 290 294 301 304 304 301 301 308 307 311
314 313 313 313 311 309 303 302 302 299 295 296 302 299 299 295 295 299 303 306 306 304 299 296 288 286 292 291 297 303 303 299 294 292 287 286 296 308 311 308 296 307 310 310
313 314 314 313 311 310 304 302 303 301 295 298 299 296 296 299 295 295 297 298 303 304 296 292 290 290 296 290 290 291 293 294 292 289 289 294 303 308 311 295 297 310 313 314
313 313 313 312 311 310 304 299 301 302 296 297 303 304 297 298 295 292 295 299 300 299 295 294 294 293 295 292 295 293 293 291 291 293 293 292 308 309 302 304 312 313 315 315
312 312 311 309 309 310 305 296 304 305 300 298 302 306 307 305 302 297 296 299 299 300 296 296 296 294 294 292 290 299 294 297 295 297 297 307 312 310 313 315 314 315 315 317
311 310 309 309 308 309 305 299 301 301 297 295 295 294 299 303 304 304 295 299 304 302 303 300 297 294 296 291 293 295 300 304 300 302 305 305 308 310 313 315 316 317 318 317
309 309 309 308 308 310 306 299 303 300 297 291 290 304 301 306 304 304 302 301 303 302 302 299 297 295 300 296 299 300 300 302 300 301 304 308 308 310 312 310 314 313 315 316
309 309 309 310 311 310 304 301 301 303 297 291 293 298 302 303 304 304 302 301 298 296 295 297 297 300 301 301 301 297 302 300 297 296 305 306 308 311 313 309 307 309 308 308
308 308 308 309 309 307 300 296 300 303 302 295 289 297 300 302 303 303 300 300 298 298 297 296 298 303 300 297 295 300 305 308 306 303 309 310 312 313 313 308 307 308 307 307
308 308 308 309 308 300 297 295 298 303 301 296 292 291 297 300 301 301 301 300 298 298 295 294 296 299 301 296 293 301 307 310 309 310 311 308 310 309 307 307 306 307 307 307
308 308 308 308 306 303 297 300 305 302 298 298 290 290 294 300 297 296 298 297 297 296 294 293 294 298 296 294 299 302 308 309 309 310 310 305 306 306 306 306 306 304 304 304
308 307 307 300 298 295 298 310 307 301 300 293 292 287 290 298 295 296 297 296 293 295 292 291 293 289 291 296 296 303 305 302 301 304 303 304 303 303 304 304 304 302 302 303
306 301 297 292 297 307 308 299 294 295 294 295 291 292 290 295 294 295 295 293 291 290 293 294 289 288 294 300 302 304 302 303 304 301 300 301 301 301 301 301 302 302 302 302
296 295 295 298 308 302 296 290 288 289 289 291 292 292 290 294 293 294 296 291 291 288 290 292 289 290 296 301 301 302 303 304 303 303 303 303 302 301 301 301 301 301 301 300
299 299 301 301 298 293 290 286 289 288 287 291 289 291 292 292 297 295 294 291 292 288 293 291 289 294 299 301 301 303 305 305 304 304 303 303 303 302 301 300 300 300 301 301
301 297 295 292 290 282 286 283 286 287 291 291 290 290 293 295 297 293 292 291 289 293 289 289 293 296 300 301 301 303 304 304 303 303 303 303 303 303 302 300 301 301 300 300
294 291 284 286 285 287 288 288 288 293 293 291 290 292 293 292 292 291 289 291 292 288 286 288 294 296 298 299 302 303 302 303 302 302 302 301 301 301 302 301 301 299 298 299
294 292 282 287 290 291 292 292 291 293 293 293 293 293 292 290 290 290 290 288 287 288 287 291 295 298 299 299 301 302 301 301 300 301 301 301 301 299 299 299 299 298 298 298
296 293 289 290 288 289 290 290 290 293 294 295 294 292 291 289 288 287 287 288 286 288 292 295 297 299 300 300 301 301 301 300 300 300 300 300 300 299 298 299 299 299 299 298
293 292 292 291 291 291 292 293 293 296 295 291 292 290 288 290 286 285 288 287 290 294 295 296 298 299 299 301 303 303 302 300 299 299 299 298 299 299 299 298 298 299 299 299
Wind_Speed
15 12 10 8 4 2 4 2 3 2 2 4 1 3 5 3 3 2 2 1 4 3 2 2 3 3 1 7 2 3 3 5 2 9 3 2 3 5 5 6 5 3 3 9
15 13 11 10 7 4 3 2 3 3 3 1 2 4 4 2 2 3 1 3 4 2 2 4 3 3 1 7 5 2 1 3 3 10 6 4 1 3 2 3 3 6 4 8
16 14 13 11 10 8 4 3 1 4 3 1 2 3 4 3 2 5 4 4 1 2 1 3 4 3 2 4 4 8 4 4 5 6 5 1 5 5 3 5 2 3 6 6
18 16 14 13 11 9 4 2 3 2 2 2 2 3 2 2 3 4 5 2 5 4 3 2 3 2 1 2 4 3 4 3 1 6 8 4 6 7 8 5 7 5 6 5
18 16 14 14 11 9 3 4 2 2 1 3 2 2 2 3 4 4 4 3 1 6 6 7 7 5 2 3 4 3 3 1 2 4 4 4 5 8 8 5 2 4 1 3
21 20 17 16 14 5 3 1 1 2 2 2 2 2 3 5 3 5 3 1 2 5 3 1 2 4 4 3 4 2 2 3 3 5 6 8 6 4 5 3 1 1 6 9
22 20 19 17 16 5 3 2 3 3 2 0 1 3 3 4 5 3 3 5 3 2 3 4 5 8 6 6 5 3 4 4 2 3 5 4 6 2 4 6 4 3 5 6
24 22 19 17 16 7 3 2 3 3 1 1 3 4 4 6 5 4 2 5 2 3 3 4 5 6 4 4 4 2 2 4 3 3 3 8 4 6 5 2 6 2 2 2
26 23 20 18 16 10 4 1 2 3 4 2 3 3 3 2 4 5 4 4 5 3 4 4 3 2 3 3 0 2 4 4 5 2 2 4 3 5 8 6 6 2 3 5
26 22 20 18 15 10 4 1 2 4 2 3 1 1 1 1 1 1 4 7 8 3 3 4 2 1 1 1 2 1 2 3 3 2 1 8 4 11 8 1 6 4 3 2
24 21 19 17 14 10 4 1 2 4 2 5 2 2 1 2 2 2 4 3 4 5 5 3 2 2 1 1 1 1 3 4 2 2 2 6 10 11 2 5 6 3 6 3
20 19 17 14 12 9 4 2 2 0 3 5 2 5 6 6 6 4 2 4 1 3 5 2 3 2 2 3 2 1 2 5 6 8 7 1 5 7 14 4 6 3 7 5
18 18 16 13 10 9 5 2 0 3 2 5 3 3 2 1 6 5 4 2 3 0 2 4 2 2 3 3 5 2 1 2 1 2 4 6 9 11 10 8 7 8 7 11
15 13 11 11 11 11 5 2 0 3 3 2 7 3 5 1 4 5 4 4 4 4 2 3 2 2 2 2 1 3 3 3 3 3 2 2 8 11 12 5 6 8 9 6
12 11 10 10 15 12 4 1 1 1 4 3 5 7 4 4 5 7 5 3 3 2 3 2 2 2 2 0 1 3 4 6 4 4 3 5 6 12 16 8 3 2 3 4
10 11 10 9 11 9 3 2 1 2 2 2 3 4 4 3 5 7 5 3 3 3 3 2 2 2 3 2 2 4 3 2 6 6 4 3 3 11 8 5 10 9 9 8
8 9 9 10 10 3 3 4 2 2 1 2 4 5 3 2 4 2 3 3 2 3 2 1 1 1 3 2 2 3 5 5 1 9 7 3 8 2 7 9 9 10 14 13
10 10 10 10 7 4 3 1 8 3 3 2 1 4 2 3 1 2 1 2 2 3 1 0 2 2 2 2 6 3 4 7 5 8 4 3 6 9 10 8 7 15 14 11
11 10 10 3 3 1 2 6 11 1 3 1 1 2 3 3 2 2 2 2 2 1 1 2 3 0 4 4 4 2 3 4 6 8 10 9 10 9 8 7 10 13 10 10
10 2 3 2 3 4 6 4 2 3 3 2 2 1 2 3 1 0 2 2 2 2 3 1 3 4 2 2 3 5 7 8 7 13 7 5 8 8 7 9 7 8 6 6
2 1 1 2 2 3 3 2 3 1 2 2 3 5 1 2 4 3 1 3 1 2 4 3 2 3 3 5 3 5 8 8 7 9 8 7 8 7 8 7 7 6 6 6
1 0 1 1 3 3 3 2 0 3 5 3 4 5 4 2 2 4 2 3 1 2 1 3 1 4 1 2 4 6 11 12 11 10 11 9 9 7 6 6 5 5 5 5
2 1 2 3 0 4 5 6 3 2 4 4 3 2 3 1 3 4 2 2 3 1 2 2 4 1 2 3 4 9 8 13 13 10 8 8 7 6 5 5 4 5 5 4
1 3 2 3 3 4 5 4 4 5 2 4 3 3 2 1 4 2 3 1 2 1 0 4 2 4 4 4 4 12 7 10 10 9 7 7 6 5 5 5 4 4 5 4
1 1 3 4 4 4 3 3 2 3 2 3 3 3 3 3 4 1 3 2 2 4 4 3 3 5 5 6 6 9 9 8 7 5 6 6 6 6 5 4 4 4 4 5
1 1 2 2 1 3 1 2 3 0 3 2 3 3 3 2 4 3 4 5 4 4 3 3 5 7 7 7 6 6 7 7 7 6 5 5 6 6 6 4 4 4 5 5
2 1 1 1 2 3 2 1 2 1 2 3 3 4 2 2 3 1 3 4 3 2 2 3 4 6 7 9 7 6 6 7 6 5 5 4 5 5 5 5 2 4 4 5
Wind_Direction
190 186 190 182 172 102 77 86 346 303 74 68 14 178 201 240 280 311 298 196 230 246 212 38 88 114 302 348 287 56 338 142 232 233 275 337 139 228 149 126 256 236 181 268
187 179 178 172 167 148 130 125 254 312 101 137 268 267 271 275 287 251 330 272 207 188 257 99 90 127 227 6 40 56 79 16 18 344 4 18 157 192 169 99 72 219 178 266
183 173 170 168 166 156 95 104 11 310 65 192 213 210 253 261 249 258 215 245 216 213 214 6 146 126 350 7 49 43 87 96 143 195 239 253 293 289 221 140 119 254 231 294
178 169 168 167 166 161 97 71 236 193 232 284 235 236 302 270 307 237 194 229 216 191 138 74 107 101 97 31 11 45 83 97 291 250 252 244 249 258 281 213 225 175 264 224
175 165 164 162 157 140 85 141 149 349 265 304 265 164 258 252 260 229 259 206 188 178 152 181 183 136 176 209 40 60 2 173 149 276 290 298 275 282 269 244 143 137 275 289
172 166 169 167 158 124 125 201 340 107 288 323 119 215 274 256 327 256 284 311 117 78 29 232 62 110 114 105 132 109 71 114 54 293 338 329 313 249 287 295 336 208 183 224
168 165 165 168 168 134 130 161 116 109 268 141 193 313 289 284 308 284 355 42 104 45 324 103 50 47 84 82 65 108 133 110 105 259 347 265 262 195 223 224 266 311 285 213
164 160 165 164 161 151 104 154 129 131 181 256 303 338 338 323 319 26 63 14 336 346 80 65 45 355 39 33 33 70 109 122 101 138 182 282 285 346 324 157 275 230 246 47
158 157 159 156 160 152 96 163 134 112 122 251 307 303 10 10 334 1 327 322 316 71 77 73 110 176 207 325 167 126 83 82 109 79 139 260 304 334 334 286 289 326 130 46
151 149 149 147 145 143 112 170 232 98 124 266 33 54 177 351 70 303 319 336 357 30 63 75 117 219 297 274 270 319 36 23 103 94 302 287 322 322 322 276 251 349 18 89
135 139 140 142 143 141 109 165 294 121 148 270 209 317 340 25 68 99 287 23 347 32 70 110 184 124 219 21 250 236 166 122 163 135 218 262 9 342 308 276 304 33 28 8
127 137 137 140 137 150 96 98 296 119 124 241 253 242 229 197 201 147 350 158 211 183 88 66 121 136 94 148 293 105 256 185 184 178 215 27 27 316 295 285 289 28 32 2
131 135 144 140 154 163 113 133 162 70 50 315 8 258 28 169 203 182 122 294 182 56 182 143 142 127 134 167 239 202 172 52 348 353 5 11 15 344 333 352 0 23 292 293
119 124 141 160 163 161 127 97 105 90 104 131 282 309 289 257 153 174 153 139 51 91 52 97 129 157 169 195 282 236 172 122 200 256 11 320 28 333 334 344 272 285 284 302
132 138 140 131 136 129 103 124 216 142 130 204 272 302 264 270 156 157 140 119 100 78 44 67 233 161 135 44 190 256 172 187 172 192 190 111 322 313 305 286 189 347 30 349
121 144 145 144 133 125 104 32 323 200 170 76 336 295 292 15 148 141 145 132 93 87 127 222 268 262 104 120 235 260 192 185 156 162 186 80 149 288 307 340 18 15 44 26
122 124 144 139 129 93 113 173 194 119 110 85 322 333 300 300 106 62 74 49 102 116 141 226 199 295 103 112 227 269 195 151 122 139 128 165 211 255 37 44 38 40 50 44
122 111 104 112 109 34 351 301 205 127 97 74 198 271 12 344 79 82 359 94 44 14 192 349 156 34 58 260 250 254 128 140 142 175 212 43 72 61 54 55 59 63 54 50
122 124 123 94 50 88 247 95 118 98 143 181 146 174 190 357 52 93 39 83 94 306 191 257 95 344 219 250 331 96 184 184 144 100 94 83 79 71 52 65 57 70 56 50
109 60 57 108 221 224 114 26 48 17 337 51 223 160 249 97 80 314 99 42 144 152 254 75 74 256 293 316 244 132 101 107 119 107 89 88 79 77 68 59 60 64 59 57
49 78 110 247 285 72 43 75 117 249 271 193 240 190 174 311 117 169 36 157 111 92 265 121 323 286 286 335 130 115 109 95 89 112 113 102 114 112 92 68 60 57 52 51
113 165 280 11 53 50 119 193 324 201 224 207 176 217 186 254 107 102 357 111 63 205 169 95 269 258 326 162 136 108 112 109 98 102 106 94 90 93 96 84 76 64 63 57
77 138 109 93 1 58 184 186 232 237 207 190 183 154 153 40 51 74 93 95 211 81 57 213 226 269 60 101 95 83 92 109 104 92 84 94 92 79 89 102 87 78 65 48
146 147 101 163 193 240 199 193 197 235 182 155 142 98 135 165 68 126 100 232 89 72 165 230 219 180 130 124 123 117 108 102 104 102 101 104 104 94 75 86 89 82 65 54
110 127 160 211 243 257 241 227 261 246 133 124 99 67 91 33 98 36 103 136 234 206 226 222 184 159 144 130 121 118 118 111 112 121 126 125 119 107 97 96 94 90 89 76
181 105 30 308 187 298 356 219 252 154 136 99 53 103 86 81 122 139 198 148 219 241 215 186 137 127 115 106 100 107 121 128 128 125 128 118 112 116 120 101 83 87 95 86
350 358 209 235 245 246 268 288 295 339 91 136 115 97 141 108 99 195 177 199 223 215 175 163 180 143 117 102 106 120 118 114 116 116 119 115 122 120 114 101 71 93 94 100